TimeMST,TemperatureF,Dew PointF,Humidity,Sea Level PressureIn,VisibilityMPH,Wind Direction,Wind SpeedMPH,Gust SpeedMPH,PrecipitationIn,Events,Conditions,WindDirDegrees,DateUTC
12:57 AM,39.0,-11.0,12,29.73,10.0,West,10.4,18.4,N/A,,Clear,260,2013-03-23 07:57:00
1:57 AM,37.9,-11.0,12,29.73,10.0,WSW,9.2,18.4,N/A,,Clear,240,2013-03-23 08:57:00
2:57 AM,35.1,-9.0,15,29.73,10.0,West,5.8,-,N/A,,Clear,270,2013-03-23 09:57:00
3:57 AM,33.1,-9.0,16,29.77,10.0,WNW,9.2,-,N/A,,Clear,290,2013-03-23 10:57:00
4:57 AM,30.0,-0.9,27,29.80,10.0,WNW,4.6,-,N/A,,Clear,300,2013-03-23 11:57:00
5:57 AM,28.0,-2.0,27,29.84,10.0,WNW,5.8,-,N/A,,Clear,290,2013-03-23 12:57:00
6:57 AM,27.0,-0.9,30,29.88,10.0,WNW,5.8,-,N/A,,Clear,300,2013-03-23 13:57:00
7:57 AM,30.9,-5.1,21,29.90,10.0,NNW,9.2,21.9,N/A,,Clear,340,2013-03-23 14:57:00
8:57 AM,34.0,-8.0,16,29.91,10.0,NNW,12.7,27.6,N/A,,Clear,330,2013-03-23 15:57:00
9:57 AM,37.0,-7.1,15,29.92,10.0,NW,9.2,23.0,N/A,,Clear,320,2013-03-23 16:57:00
10:57 AM,39.9,-7.1,14,29.91,10.0,WNW,10.4,18.4,N/A,,Clear,290,2013-03-23 17:57:00
11:57 AM,44.1,-7.1,12,29.89,10.0,NW,9.2,19.6,N/A,,Clear,310,2013-03-23 18:57:00
12:57 PM,46.0,-11.0,9,29.88,10.0,WNW,10.4,19.6,N/A,,Clear,300,2013-03-23 19:57:00
1:57 PM,45.0,-9.9,10,29.88,10.0,NNW,9.2,20.7,N/A,,Clear,330,2013-03-23 20:57:00
2:57 PM,46.0,-9.0,10,29.88,10.0,NW,10.4,17.3,N/A,,Clear,310,2013-03-23 21:57:00
3:57 PM,45.0,-11.9,9,29.91,10.0,Variable,5.8,21.9,N/A,,Clear,0,2013-03-23 22:57:00
4:57 PM,44.1,-15.0,8,29.95,10.0,NNW,11.5,19.6,N/A,,Clear,330,2013-03-23 23:57:00
5:57 PM,42.1,-11.0,10,29.98,10.0,West,9.2,16.1,N/A,,Clear,270,2013-03-24 00:57:00
6:57 PM,36.0,-7.1,16,30.01,10.0,NW,3.5,-,N/A,,Clear,320,2013-03-24 01:57:00
7:57 PM,33.1,-7.1,18,30.03,10.0,NNW,3.5,-,N/A,,Clear,330,2013-03-24 02:57:00
8:57 PM,27.0,-2.0,29,30.06,10.0,Calm,Calm,-,N/A,,Clear,0,2013-03-24 03:57:00
9:57 PM,25.0,3.0,39,30.06,10.0,Calm,Calm,-,N/A,,Clear,0,2013-03-24 04:57:00
10:57 PM,23.0,5.0,46,30.05,10.0,Calm,Calm,-,N/A,,Clear,0,2013-03-24 05:57:00
11:57 PM,21.9,3.9,46,30.04,10.0,NNE,3.5,-,N/A,,Clear,30,2013-03-24 06:57:00